Regional Weather Roundup
Issued by NWS

Home | Current Version | Previous Version | Graphics & Text | Print | Product List | Glossary On
Versions: 1 2 3 4 5 6 7 8 9 10 11 12 13 14 15 16 17 18 19 20 21 22 23 24 25 26 27
000
ASUS45 KBOU 181707
RWRCO

WEATHER ROUNDUP FOR COLORADO
NATIONAL WEATHER SERVICE DENVER/BOULDER CO
1100 AM MDT WED OCT 18 2017

NOTE: "FAIR" INDICATES FEW OR NO CLOUDS BELOW 12000 FEET WITH NO
SIGNIFICANT WEATHER AND/OR OBSTRUCTIONS TO VISIBILITY.

COZ001>005-013-030-031-181800-
...NORTHWEST COLORADO...

CITY           SKY/WX    TMP DP  RH WIND       PRES   REMARKS
CRAIG          FAIR      50  20  30 CALM      30.31S
HAYDEN         FAIR      53  13  20 SE9       30.32F
MEEKER         FAIR      56  13  18 CALM      30.30F
RABBIT EARS PA FAIR      43   5  21 W6        30.47R
STEAMBOAT SPGS FAIR      47  20  33 CALM      30.32F
WALDEN         FAIR      54   5  14 CALM      30.37R
$$

COZ006>008-011-181800-
...WEST CENTRAL VALLEYS...

CITY           SKY/WX    TMP DP  RH WIND       PRES   REMARKS
GRAND JUNCTION FAIR      57  16  20 SE7       30.26S
MONTROSE       FAIR      55  18  23 NW5       30.31S
EAGLE          FAIR      44  17  33 W5        30.38F
RIFLE          FAIR      50  19  29 SW3       30.30F
DELTA          FAIR      54  14  20 CALM      30.28F
NUCLA          FAIR      54  10  17 CALM      30.32F
$$

COZ017>023-064>068-181800-
...SOUTHWEST COLORADO...

CITY           SKY/WX    TMP DP  RH WIND       PRES   REMARKS
DURANGO        FAIR      56  18  22 E5        30.31S
CORTEZ         FAIR      57  21  24 CALM      30.27F
PAGOSA SPRINGS FAIR      55  20  25 CALM      30.36S
TELLURIDE      NOT AVBL
WOLF CREEK PAS FAIR      43  -6  13 N5        30.60S
$$

COZ009-010-012-014-032>034-037-058>063-181800-
...CENTRAL COLORADO...

CITY           SKY/WX    TMP DP  RH WIND       PRES   REMARKS
ASPEN          FAIR      52  10  18 N5        30.36S
BUENA VISTA    FAIR      48  12  23 CALM      30.40S
COPPER MTN     FAIR      45  -9  10 SE3       30.56S
BERTHOUD PASS  FAIR      34  27  75 NW24G35   30.55F WCI  21
COTTONWOOD PAS FAIR      55  -4   8 CALM      30.47S
GUNNISON       FAIR      36  11  35 SW3       30.43F
KREMMLING      FAIR      46  14  27 CALM      30.40F
LEADVILLE      FAIR      51  -8   8 NW5       30.45R
SALIDA         NOT AVBL
SUNLIGHT       FAIR      43   5  21 CALM      30.53R
WILKERSON PASS NOT AVBL
$$

COZ069>075-181800-
...SAN LUIS VALLEY/SANGRE DE CRISTO MOUNTAINS...

CITY           SKY/WX    TMP DP  RH WIND       PRES   REMARKS
ALAMOSA        FAIR      51  17  26 NW5       30.37S
DEL NORTE      FAIR      53  13  20 CALM      30.39S
LA VETA PASS   FAIR      52  18  25 SW10      30.57R
SAGUACHE       FAIR      50  12  22 W8        30.38F
$$

COZ035-036-038>040-181800-
...NORTHERN COLORADO FRONT RANGE...

CITY           SKY/WX    TMP DP  RH WIND       PRES   REMARKS
DENVER INTL AP PTSUNNY   69  16  13 W7        30.18R
DMNS CITY PARK   N/A     67  21  17 E8        30.19R
AURORA         PTSUNNY   65  18  16 W7        30.21R
FRONT RANGE AP PTSUNNY   68  23  18 W6        30.20R
ERIE MUNI ARPT FAIR      62  30  29 CALM      30.22S
BOULDER MUN AP FAIR      64  27  24 N7        30.18R
CENTENNIAL     PTSUNNY   64  17  16 W6        30.21R
BROOMFIELD     PTSUNNY   72  16  12 NW8       30.18S
FORT COLLINS   FAIR      66  20  17 W8        30.16S
LONGMONT       FAIR      68  31  24 E3        30.19R
$$

COZ041-046-047-076>085-087-088-181800-
...PIKES PEAK/PALMER DIVIDE AND SOUTHERN FOOTHILLS...

CITY           SKY/WX    TMP DP  RH WIND       PRES   REMARKS
COLO. SPRINGS  PTSUNNY   71  16  12 N9        30.22R
A. F. ACADEMY  FAIR      65   9  11 N8        30.23S
SCHRIEVER AFB  FAIR      71   7   8 NW8       30.22R
CHEYENNE MTN   FAIR      65  14  14 MISG      30.21R
ELLICOTT       FAIR     N/A N/A N/A N5        30.20R
FALCON         FAIR      68   6   9 NW13      30.27R
FORT CARSON    FAIR      68  20  16 N8        30.19S
LIMON          FAIR      73  14  10 N13       30.18R
MONUMENT HILL  FAIR      59  19  21 NW9       30.28S
CANON CITY     SUNNY     64  14  14 W15       30.19S
WALSENBURG     FAIR      75  18  11 W9G20     30.21S
TRINIDAD       FAIR      68  23  18 W8        30.20R
$$

COZ042>045-048>051-090-091-181800-
...NORTHEAST COLORADO...

CITY           SKY/WX    TMP DP  RH WIND       PRES   REMARKS
GREELEY ARPT   FAIR      67  35  30 SW9       30.15R
AKRON          FAIR      67  26  21 W12       30.13R
BURLINGTON     FAIR      73  28  18 N9        30.11R
WRAY           FAIR      72  25  17 NW9       30.08S
YUMA           NOT AVBL
STERLING       FAIR      73  21  14 NW16G24   30.10S
HOLYOKE        FAIR      77  18  10 NW20G26   30.08R
FORT MORGAN    FAIR      76   9   7 NW23G31   30.14S
$$

COZ086-089-092>099-181800-
...SOUTHEAST COLORADO...

CITY           SKY/WX    TMP DP  RH WIND       PRES   REMARKS
PUEBLO         FAIR      69  20  15 NW7       30.14S
LA JUNTA       FAIR      71  26  18 W9        30.10F
LAMAR          FAIR      68  30  24 W8        30.07F
SPRINGFIELD      N/A     76  29  17 N7        30.10R
$$




USA.gov is the U.S. government's official web portal to all federal, state and local government web resources and services.